Simultaneous Nadir Overpasses (SNOs) Predictions

Prediction of SNOs between AQUA and METOP-B Satellite Orbit:

Table of predicted SNOs for the next 14.0 days since TLE Epoch: 4/3/2015
Index Date (AQUA) Time (AQUA) Lat,Lon (AQUA) SZA (AQUA ) Date (METOP-B) Time (METOP-B) Lat,Lon (METOP-B) SZA (METOP-B ) Distance(km) Time Diff (sec)
1 04/06/2015 12:38:40 -73.64, 165.20 112.81 04/06/2015 12:37:27 -73.60, 164.80 112.83 13.35 73
2 04/06/2015 13:28:10 73.77, -27.45 67.32 04/06/2015 13:28:03 73.77, -27.47 67.32 0.66 7
3 04/06/2015 14:17:37 -73.84, 140.04 112.62 04/06/2015 14:18:44 -73.83, 139.99 112.64 1.94 67
4 04/09/2015 08:12:59 -73.71,-128.52 113.80 04/09/2015 08:11:48 -73.71,-128.55 113.79 1.20 71
5 04/09/2015 09:02:28 73.79, 38.94 66.28 04/09/2015 09:02:26 73.78, 38.94 66.26 1.79 2
6 04/09/2015 09:51:55 -73.86,-153.56 113.67 04/09/2015 09:53:07 -73.84,-153.59 113.70 2.37 72
7 04/12/2015 03:47:15 -73.70, -62.07 114.86 04/12/2015 03:46:11 -73.70, -62.16 114.84 2.88 64
8 04/12/2015 04:36:44 73.79, 105.37 65.23 04/12/2015 04:36:49 73.77, 105.33 65.21 3.09 5
9 04/12/2015 05:26:13 -74.01, -87.47 114.56 04/12/2015 05:27:25 -74.03, -86.72 114.56 23.14 72
10 04/14/2015 23:21:29 -73.73, 4.32 115.85 04/14/2015 23:20:32 -73.74, 4.33 115.84 1.22 57
11 04/15/2015 00:10:57 73.77, 171.86 64.19 04/15/2015 00:11:10 73.80, 171.81 64.21 3.26 13
12 04/15/2015 01:00:34 -74.34, -21.81 115.22 04/15/2015 01:01:41 -74.36, -19.48 115.28 69.71 67




NCC Satellite Simultaneous Nadir Overpasses (SNOs) Prediction Service
